KC0VVH Weather Reports


time (UTC)temp
C
wind
direction
speed
KPH
gust
KPH
rain 1hr
cm
rain 24hr
cm
rain mn
cm
humidity
%
barometer
mb
20260904220011 31 58 1.6 9.7 0.00 0.00 0.00 26 1016.5
20260904215411 31 60 3.2 9.7 0.00 0.00 0.00 27 1016.5
20260904214511 30 61 1.6 9.7 0.00 0.00 0.00 27 1016.5
20260904213632 30 0 0.0 0.0 0.00 0.00 0.00 28 1016.5
20260904212711 30 0 0.0 1.6 0.00 0.00 0.00 28 1016.5
20260904211811 30 0 0.0 0.0 0.00 0.00 0.00 28 1016.5
20260904210911 29 61 0.0 6.4 0.00 0.00 0.00 30 1016.5
20260904210011 29 61 1.6 8.0 0.00 0.00 0.00 29 1016.5
20260904205411 30 61 0.0 6.4 0.00 0.00 0.00 29 1016.5
20260904204532 30 56 1.6 12.9 0.00 0.00 0.00 29 1016.5
20260904203632 30 27 1.6 6.4 0.00 0.00 0.00 29 1016.5
20260904202711 30 24 1.6 12.9 0.00 0.00 0.00 28 1016.5
20260904201811 30 27 1.6 9.7 0.00 0.00 0.00 27 1016.5
20260904200932 30 26 1.6 9.7 0.00 0.00 0.00 29 1016.5
20260904200032 29 26 1.6 9.7 0.00 0.00 0.00 30 1016.5
20260904195411 29 28 3.2 12.9 0.00 0.00 0.00 28 1016.5
20260904194532 29 46 3.2 12.9 0.00 0.00 0.00 29 1016.5
20260904193632 29 24 1.6 8.0 0.00 0.00 0.00 29 1016.5
20260904192711 28 319 4.8 16.1 0.00 0.00 0.00 28 1016.5
20260904191811 28 307 3.2 16.1 0.00 0.00 0.00 29 1016.5
20260904190932 28 322 1.6 9.7 0.00 0.00 0.00 29 1016.5
20260904190011 29 15 1.6 16.1 0.00 0.00 0.00 28 1016.5
20260904185411 29 10 4.8 16.1 0.00 0.00 0.00 29 1016.5
20260904184511 29 343 1.6 8.0 0.00 0.00 0.00 29 1016.5
20260904183611 30 3 1.6 8.0 0.00 0.00 0.00 27 1016.5
20260904182711 30 360 1.6 8.0 0.00 0.00 0.00 26 1016.5
20260904181811 30 351 3.2 11.3 0.00 0.00 0.00 27 1016.5
20260904180932 30 2 3.2 9.7 0.00 0.00 0.00 26 1016.5
20260904180011 30 267 3.2 16.1 0.00 0.00 0.00 27 1016.5
20260904175411 29 183 1.6 11.3 0.00 0.00 0.00 28 1016.5
20260904174532 28 180 0.0 6.4 0.00 0.00 0.00 29 1016.5
20260904173611 27 181 1.6 8.0 0.00 0.00 0.00 28 1016.5
20260904172711 28 185 6.4 16.1 0.00 0.00 0.00 28 1016.5
20260904171811 28 77 6.4 20.9 0.00 0.00 0.00 28 1016.5
20260904170911 28 69 8.0 16.1 0.00 0.00 0.00 30 1016.5
20260904170011 28 70 8.0 17.7 0.00 0.00 0.00 30 1016.5
20260904165411 28 66 6.4 17.7 0.00 0.00 0.00 30 1016.5
20260904164532 27 67 9.7 17.7 0.00 0.00 0.00 31 1016.5
20260904163611 27 67 8.0 24.1 0.00 0.00 0.00 31 1016.5
20260904162711 27 62 8.0 17.7 0.00 0.00 0.00 31 1016.5
20260904161811 27 63 8.0 19.3 0.00 0.00 0.00 33 1016.5
20260904160911 27 65 8.0 17.7 0.00 0.00 0.00 33 1016.5
20260904160011 27 59 4.8 16.1 0.00 0.00 0.00 33 1016.5
20260904155432 27 69 4.8 14.5 0.00 0.00 0.00 34 1016.5
20260904154511 26 70 6.4 17.7 0.00 0.00 0.00 33 1016.5
20260904153611 26 68 8.0 14.5 0.00 0.00 0.00 35 1016.5
20260904152711 26 72 6.4 14.5 0.00 0.00 0.00 35 1016.5
20260904151832 26 74 4.8 11.3 0.00 0.00 0.00 35 1016.5
20260904150932 26 76 3.2 11.3 0.00 0.00 0.00 37 1016.5
20260904150011 26 141 0.0 6.4 0.00 0.00 0.00 36 1016.5
20260904145411 26 141 0.0 6.4 0.00 0.00 0.00 36 1016.5
20260904144532 25 0 0.0 1.6 0.00 0.00 0.00 36 1016.5
20260904143611 25 208 0.0 8.0 0.00 0.00 0.00 35 1016.5
20260904142711 24 181 0.0 8.0 0.00 0.00 0.00 34 1016.5
20260904141832 24 186 1.6 9.7 0.00 0.00 0.00 35 1016.5
20260904140932 23 199 1.6 11.3 0.00 0.00 0.00 35 1016.5
20260904140011 23 190 4.8 12.9 0.00 0.00 0.00 36 1016.5
20260904135411 22 199 4.8 16.1 0.00 0.00 0.00 36 1016.5
20260904134511 22 195 6.4 16.1 0.00 0.00 0.00 36 1016.5
20260904133632 22 193 6.4 12.9 0.00 0.00 0.00 37 1016.5
20260904132732 21 204 3.2 14.5 0.00 0.00 0.00 37 1016.5
20260904131811 21 219 1.6 11.3 0.00 0.00 0.00 37 1016.5
20260904130911 21 210 4.8 17.7 0.00 0.00 0.00 37 1016.5
20260904130011 22 208 4.8 17.7 0.00 0.00 0.00 37 1016.5
20260904125432 22 217 3.2 12.9 0.00 0.00 0.00 36 1016.5
20260904124511 22 206 3.2 12.9 0.00 0.00 0.00 35 1016.5
20260904123633 22 205 3.2 12.9 0.00 0.00 0.00 34 1016.5
20260904122711 22 205 3.2 11.3 0.00 0.00 0.00 34 1016.5
20260904121811 22 204 3.2 12.9 0.00 0.00 0.00 35 1016.5
20260904120911 22 202 3.2 14.5 0.00 0.00 0.00 35 1016.5
20260904120011 22 202 3.2 11.3 0.00 0.00 0.00 35 1016.5
20260904115411 22 204 3.2 12.9 0.00 0.00 0.00 35 1016.5
20260904114511 22 210 1.6 14.5 0.00 0.00 0.00 35 1016.5
20260904113611 22 201 4.8 17.7 0.00 0.00 0.00 35 1016.5
20260904112711 22 205 3.2 17.7 0.00 0.00 0.00 34 1016.5
20260904111832 22 218 1.6 11.3 0.00 0.00 0.00 35 1016.5
20260904110911 22 199 4.8 12.9 0.00 0.00 0.00 34 1016.5
20260904110011 22 207 4.8 12.9 0.00 0.00 0.00 34 1016.5
20260904105411 22 203 3.2 12.9 0.00 0.00 0.00 34 1016.5
20260904104511 22 215 1.6 9.7 0.00 0.00 0.00 34 1016.5
20260904103611 22 224 3.2 16.1 0.00 0.00 0.00 33 1016.5
20260904102711 22 225 3.2 14.5 0.00 0.00 0.00 33 1016.5
20260904101811 23 214 1.6 11.3 0.00 0.00 0.00 33 1016.5
20260904100911 23 205 4.8 17.7 0.00 0.00 0.00 33 1016.5
20260904100011 23 207 3.2 19.3 0.00 0.00 0.00 32 1016.5
20260904095411 23 208 3.2 14.5 0.00 0.00 0.00 32 1016.5
20260904094511 23 204 4.8 14.5 0.00 0.00 0.00 32 1016.5
20260904093611 23 208 6.4 16.1 0.00 0.00 0.00 32 1016.5
20260904092711 23 213 6.4 14.5 0.00 0.00 0.00 31 1016.5
20260904091811 23 205 4.8 12.9 0.00 0.00 0.00 31 1016.5
20260904090911 23 209 4.8 12.9 0.00 0.00 0.00 31 1016.5
20260904090011 23 215 4.8 14.5 0.00 0.00 0.00 31 1016.5
20260904085411 23 216 4.8 14.5 0.00 0.00 0.00 31 1016.5
20260904084511 23 226 4.8 12.9 0.00 0.00 0.00 31 1016.5
20260904083611 23 226 4.8 11.3 0.00 0.00 0.00 31 1016.5
20260904082711 23 224 4.8 11.3 0.00 0.00 0.00 31 1016.5
20260904081811 23 213 4.8 14.5 0.00 0.00 0.00 31 1016.5
20260904080911 23 215 3.2 12.9 0.00 0.00 0.00 31 1016.5
20260904080032 23 206 3.2 12.9 0.00 0.00 0.00 31 1016.5
20260904075411 23 221 3.2 12.9 0.00 0.00 0.00 31 1016.5
20260904074511 23 221 1.6 12.9 0.00 0.00 0.00 32 1016.5
20260904073611 22 0 0.0 0.0 0.00 0.00 0.00 34 1016.5
20260904072711 23 156 0.0 9.7 0.00 0.00 0.00 32 1016.5
20260904071811 23 193 4.8 16.1 0.00 0.00 0.00 31 1016.5
20260904070911 23 206 6.4 19.3 0.00 0.00 0.00 30 1016.5
20260904070032 23 223 4.8 12.9 0.00 0.00 0.00 31 1016.5
20260904065411 23 221 6.4 16.1 0.00 0.00 0.00 30 1016.5
20260904064511 23 209 8.0 16.1 0.00 0.00 0.00 30 1016.5
20260904063611 23 205 9.7 14.5 0.00 0.00 0.00 30 1016.5
20260904062711 24 221 6.4 14.5 0.00 0.00 0.00 30 1016.5
20260904061811 24 238 6.4 16.1 0.00 0.00 0.00 29 1016.5
20260904060911 24 247 4.8 12.9 0.00 0.00 0.00 28 1016.5
20260904060012 24 237 4.8 14.5 0.00 0.00 0.00 29 1016.5
20260904055411 24 228 3.2 11.3 0.00 0.00 0.00 29 1016.5
20260904054511 24 227 3.2 11.3 0.00 0.00 0.00 29 1016.5
20260904053632 24 227 3.2 11.3 0.00 0.00 0.00 29 1016.5
20260904052711 24 227 3.2 11.3 0.00 0.00 0.00 29 1016.5
20260904051811 24 225 4.8 12.9 0.00 0.00 0.00 28 1016.5
20260904050911 24 225 4.8 12.9 0.00 0.00 0.00 29 1016.5
20260904050011 25 226 3.2 11.3 0.00 0.00 0.00 28 1016.5
20260904045411 25 226 1.6 9.7 0.00 0.00 0.00 28 1016.5
20260904044511 25 227 4.8 11.3 0.00 0.00 0.00 27 1016.5
20260904043611 25 227 4.8 11.3 0.00 0.00 0.00 27 1016.5
20260904042711 25 226 6.4 14.5 0.00 0.00 0.00 26 1016.5
20260904041811 25 229 4.8 12.9 0.00 0.00 0.00 27 1016.5
20260904040911 25 225 4.8 11.3 0.00 0.00 0.00 27 1016.5
20260904040032 25 237 4.8 19.3 0.00 0.00 0.00 28 1016.5
20260904035432 25 243 3.2 11.3 0.00 0.00 0.00 28 1016.5
20260904034511 25 244 1.6 6.4 0.00 0.00 0.00 28 1016.5
20260904033611 25 0 0.0 0.0 0.00 0.00 0.00 28 1016.5
20260904032732 25 244 1.6 6.4 0.00 0.00 0.00 27 1016.5
20260904031832 25 244 1.6 12.9 0.00 0.00 0.00 29 1016.5
20260904030911 25 244 3.2 8.0 0.00 0.00 0.00 28 1016.5
20260904030011 25 243 1.6 8.0 0.00 0.00 0.00 27 1016.5
20260904025432 25 241 3.2 8.0 0.00 0.00 0.00 27 1016.5
20260904024511 25 229 4.8 14.5 0.00 0.00 0.00 25 1016.5
20260904023632 25 226 3.2 17.7 0.00 0.00 0.00 25 1016.5
20260904022711 25 240 3.2 11.3 0.00 0.00 0.00 25 1016.5
20260904021811 25 206 1.6 11.3 0.00 0.00 0.00 26 1016.5
20260904020911 26 138 1.6 4.8 0.00 0.00 0.00 26 1016.5
20260904020011 25 90 1.6 9.7 0.00 0.00 0.00 27 1016.5
20260904015411 25 62 0.0 9.7 0.00 0.00 0.00 27 1016.5
20260904014511 25 61 0.0 3.2 0.00 0.00 0.00 26 1016.5
20260904013611 25 0 0.0 0.0 0.00 0.08 0.00 27 1016.5
20260904012732 26 0 0.0 0.0 0.00 0.08 0.00 28 1016.5
20260904011811 26 0 0.0 0.0 0.00 0.08 0.00 26 1016.5
20260904010911 27 0 0.0 1.6 0.00 0.08 0.00 24 1016.5
20260904010011 27 0 0.0 0.0 0.00 0.08 0.00 20 1016.5
20260904005411 28 0 0.0 0.0 0.00 0.08 0.00 20 1016.5
20260904004512 28 0 0.0 0.0 0.00 0.08 0.00 21 1016.5
20260904003633 28 60 1.6 6.4 0.00 0.08 0.00 21 1016.5
20260904002732 28 60 0.0 6.4 0.00 0.08 0.00 23 1016.5
20260904001811 28 60 0.0 6.4 0.00 0.08 0.00 22 1016.5
20260904000911 28 60 0.0 1.6 0.00 0.08 0.00 21 1016.5
20260904000011 28 0 0.0 0.0 0.00 0.08 0.00 24 1016.5
20260903235411 27 0 0.0 0.0 0.00 0.08 0.00 24 1016.5
20260903234511 28 60 1.6 6.4 0.00 0.08 0.00 24 1016.5
20260903233611 28 0 0.0 0.0 0.00 0.08 0.00 22 1016.5
20260903232712 28 60 1.6 8.0 0.00 0.08 0.00 21 1016.5
20260903231811 28 60 1.6 8.0 0.00 0.08 0.00 22 1016.5
20260903230911 28 60 1.6 6.4 0.00 0.08 0.00 23 1016.5
20260903230011 28 60 3.2 9.7 0.00 0.08 0.00 23 1016.5
20260903225411 28 61 1.6 8.0 0.00 0.08 0.00 23 1016.5
20260903224533 28 61 1.6 8.0 0.00 0.08 0.00 22 1016.5
20260903223611 28 58 3.2 9.7 0.00 0.08 0.00 21 1016.5
20260903222711 30 31 4.8 11.3 0.00 0.08 0.00 21 1016.5
20260903221811 30 16 4.8 12.9 0.00 0.08 0.00 21 1016.5
20260903220911 30 26 4.8 16.1 0.00 0.08 0.00 20 1016.5